Location: Unspecified
(0.0000°N, 0.0000°E)
Time: 07:03:58
(UTC+00:00)

Hubble Space Telescope - Pass Details

Date: 10 February 2018
Orbit: 537 x 541 km, 28.5° (Epoch: 22 May)

Event Time Altitude Azimuth Distance (km) Brightness Sun altitude
Exits shadow 04:15:41 10° 177° (S) 1,815 3.6 -28.6°
Reaches altitude 10° 04:15:52 10° 175° (S) 1,789 3.6 -28.6°
Maximum altitude 04:17:23 12° 153° (SSE) 1,680 3.8 -28.2°
Drops below altitude 10° 04:18:54 10° 131° (SE) 1,788 4.2 -27.8°
Sets 04:22:34 0° 98° (E) 2,678 5.6 -27.0°
